Waarnemingen

Advertentie
Mijn weer
Cabo Busto, Spanje (8010): temperatuur & dauwpunt: 15.02.2018 14:00:00 - 21.02.2018 14:00:00 (CET)Cabo Busto, Spanje (8010): windsnelheid & windstoten: 15.02.2018 14:00:00 - 21.02.2018 14:00:00 (CET)Cabo Busto, Spanje (8010): windrichting: 15.02.2018 14:00:00 - 21.02.2018 14:00:00 (CET)Cabo Busto, Spanje (8010): luchtdruk: 15.02.2018 14:00:00 - 21.02.2018 14:00:00 (CET)Cabo Busto, Spanje (8010): zicht: 15.02.2018 14:00:00 - 21.02.2018 14:00:00 (CET)Cabo Busto, Spanje (8010): Zonneschijnduur: 15.02.2018 14:00:00 - 21.02.2018 14:00:00 (CET)Cabo Busto, Spanje (8010): neerslag: 15.02.2018 14:00:00 - 21.02.2018 14:00:00 (CET)
Datum & Tijd tt [°C] td [°C] ff [km/u] ff [kn] fx [km/u] fx [kn] dd ppp [hPa] vv [km] sd [min] rr [mm]
21.02.2018 14:00:00 - - - - - - - - - - -
21.02.2018 13:00:00 - - - - - - - - - - -
21.02.2018 12:00:00 - - - - - - - - - - -
21.02.2018 11:00:00 - - - - - - - - - - -
21.02.2018 10:00:00 - - - - - - - - - - -
21.02.2018 09:00:00 - - - - - - - - - - -
21.02.2018 08:00:00 - - - - - - - - - - -
21.02.2018 07:00:00 10,0 3,4 18 10 39 21 NO 1020,0 8 0 -
21.02.2018 06:00:00 9,9 4,6 10 5 36 19 NNW 1020,4 5 0 0,0
21.02.2018 05:00:00 9,8 4,1 11 6 30 16 NNO 1021,1 10 0 0,0
21.02.2018 04:00:00 9,7 4,3 10 6 36 20 NW 1021,7 10 0 0,0
21.02.2018 03:00:00 9,7 5,0 10 5 36 20 NNW 1022,3 11 0 0,0
21.02.2018 02:00:00 9,8 5,5 9 5 39 21 NW 1022,7 8 0 0,0
21.02.2018 01:00:00 10,1 6,8 11 6 26 14 ZW 1022,8 13 0 -
21.02.2018 00:00:00 10,8 8,3 11 6 29 16 W 1023,1 9 0 0,0
20.02.2018 23:00:00 10,7 8,4 11 6 23 13 W 1023,3 5 0 0,0
20.02.2018 22:00:00 - - - - - - - - - - -
20.02.2018 21:00:00 - - - - - - - - - - -
20.02.2018 20:00:00 - - - - - - - - - - -
20.02.2018 19:00:00 - - - - - - - - - - -
20.02.2018 18:00:00 - - - - - - - - - - -
20.02.2018 17:00:00 11,5 8,9 5 3 14 8 Z 1024,1 20 0 0,0
20.02.2018 16:00:00 11,7 8,4 5 3 36 19 N 1024,6 3,9 0 0,0
20.02.2018 15:00:00 11,8 9,0 3 2 9 5 ONO 1024,9 6 0 0,0
20.02.2018 14:00:00 11,4 8,8 6 3 13 7 ZO 1025,3 20 0 0,0
20.02.2018 13:00:00 11,9 8,9 4 2 11 6 WZW 1025,5 6 0 -
20.02.2018 12:00:00 12,7 9,3 5 3 11 6 O 1025,3 3,1 53 0,0
20.02.2018 11:00:00 11,4 9,3 7 4 15 8 ZZO 1025,4 20 19 0,0
20.02.2018 10:00:00 9,6 7,7 11 6 16 9 ZZO 1025,3 20 0 0,0
20.02.2018 09:00:00 9,1 7,3 13 7 18 10 ZO 1024,9 20 0 0,0
20.02.2018 08:00:00 9,0 7,3 8 5 18 10 ZO 1024,5 20 0 0,0
20.02.2018 07:00:00 9,6 7,6 13 7 27 15 O 1024,6 3,7 0 -
20.02.2018 06:00:00 10,6 8,5 2 1 16 9 ZO 1024,3 4,6 0 0,0
20.02.2018 05:00:00 11,1 8,8 5 3 18 10 WNW 1024,4 3,1 0 0,0
20.02.2018 04:00:00 - - - - - - - - - - -
20.02.2018 03:00:00 - - - - - - - - - - -
20.02.2018 02:00:00 - - - - - - - - - - -
20.02.2018 01:00:00 - - - - - - - - - - -
20.02.2018 00:00:00 - - - - - - - - - - -
19.02.2018 23:00:00 11,3 9,2 14 8 22 12 N 1024,2 20 0 0,0
19.02.2018 22:00:00 11,3 9,4 13 7 20 11 NNW 1024,3 16 0 0,0
19.02.2018 21:00:00 11,3 9,4 9 5 15 8 NW 1024,2 3,3 0 0,0
19.02.2018 20:00:00 11,3 9,4 11 6 18 10 NW 1024,0 10 0 0,0
19.02.2018 19:00:00 11,3 9,6 10 5 29 16 NNW 1023,9 14 0 -
19.02.2018 18:00:00 11,4 9,8 11 6 74 40 N 1023,6 6 0 0,0
19.02.2018 17:00:00 11,8 10,2 7 4 50 27 NW 1023,6 3,8 0 0,0
19.02.2018 16:00:00 12,2 10,6 6 4 18 10 W 1023,5 2,6 0 0,0
19.02.2018 15:00:00 11,7 10,2 12 6 28 15 WNW 1023,7 4,0 0 0,0
19.02.2018 14:00:00 11,2 9,7 16 9 21 11 W 1023,7 7 0 0,0
19.02.2018 13:00:00 10,8 9,4 16 9 21 11 W 1024,0 7 0 -
19.02.2018 12:00:00 - - - - - - - - - - -
19.02.2018 11:00:00 - - - - - - - - - - -
19.02.2018 10:00:00 - - - - - - - - - - -
19.02.2018 09:00:00 - - - - - - - - - - -
19.02.2018 08:00:00 - - - - - - - - - - -
19.02.2018 07:00:00 10,8 8,8 22 12 26 14 W 1023,0 6 0 -
19.02.2018 06:00:00 10,7 8,7 19 10 23 12 W 1023,1 8 0 0,2
19.02.2018 05:00:00 10,7 8,4 16 9 21 11 W 1023,0 9 0 0,0
19.02.2018 04:00:00 - - - - - - - - - - -
19.02.2018 03:00:00 - - - - - - - - - - -
19.02.2018 02:00:00 - - - - - - - - - - -
19.02.2018 01:00:00 - - - - - - - - - - -
19.02.2018 00:00:00 - - - - - - - - - - -
18.02.2018 23:00:00 11,2 8,8 14 8 20 11 W 1025,0 8 0 0,0
18.02.2018 22:00:00 11,4 8,9 13 7 21 11 W 1025,6 11 0 0,0
18.02.2018 21:00:00 11,3 9,0 12 6 19 11 WZW 1025,7 7 0 0,0
18.02.2018 20:00:00 - - - - - - - - - - -
18.02.2018 19:00:00 - - - - - - - - - - -
18.02.2018 18:00:00 - - - - - - - - - - -
18.02.2018 17:00:00 - - - - - - - - - - -
18.02.2018 16:00:00 - - - - - - - - - - -
18.02.2018 15:00:00 14,4 9,4 9 5 20 11 WNW 1026,8 9 41 0,0
18.02.2018 14:00:00 - - - - - - - - - - -
18.02.2018 13:00:00 - - - - - - - - - - -
18.02.2018 12:00:00 - - - - - - - - - - -
18.02.2018 11:00:00 - - - - - - - - - - -
18.02.2018 10:00:00 - - - - - - - - - - -
18.02.2018 09:00:00 7,8 3,9 10 5 21 11 WZW 1028,2 20 0 0,0
18.02.2018 08:00:00 6,4 2,7 14 8 27 15 Z 1027,5 20 0 0,0
18.02.2018 07:00:00 6,7 2,7 19 10 26 14 ZZO 1027,4 20 0 -
18.02.2018 06:00:00 6,2 3,0 21 11 28 15 ZZO 1027,7 20 0 0,0
18.02.2018 05:00:00 6,2 3,0 19 10 24 13 ZZO 1028,1 20 0 0,0
18.02.2018 04:00:00 - - - - - - - - - - -
18.02.2018 03:00:00 - - - - - - - - - - -
18.02.2018 02:00:00 - - - - - - - - - - -
18.02.2018 01:00:00 - - - - - - - - - - -
18.02.2018 00:00:00 - - - - - - - - - - -
17.02.2018 23:00:00 6,4 4,1 18 10 20 11 ZZO 1029,6 20 0 0,0
17.02.2018 22:00:00 6,7 4,3 16 9 19 10 ZZO 1029,5 20 0 0,0
17.02.2018 21:00:00 7,4 4,6 13 7 16 9 Z 1029,4 20 0 0,0
17.02.2018 20:00:00 8,5 5,1 9 5 11 6 Z 1029,1 20 0 0,0
17.02.2018 19:00:00 - - - - - - - - - - -
17.02.2018 18:00:00 - - - - - - - - - - -
17.02.2018 17:00:00 - - - - - - - - - - -
17.02.2018 16:00:00 - - - - - - - - - - -
17.02.2018 15:00:00 - - - - - - - - - - -
17.02.2018 14:00:00 - - - - - - - - - - -
17.02.2018 13:00:00 - - - - - - - - - - -
17.02.2018 12:00:00 - - - - - - - - - - -
17.02.2018 11:00:00 - - - - - - - - - - -
17.02.2018 10:00:00 10,5 6,8 12 6 19 11 ZW 1027,9 20 57 0,0
17.02.2018 09:00:00 9,2 6,7 13 7 20 11 ZW 1027,7 15 0 0,0
17.02.2018 08:00:00 9,0 6,2 12 6 27 14 ZW 1026,9 20 0 0,2
17.02.2018 07:00:00 9,5 6,4 17 9 24 13 WZW 1026,5 4,3 0 -
17.02.2018 06:00:00 9,3 5,5 12 7 20 11 ZZW 1026,0 5 0 0,0
17.02.2018 05:00:00 9,4 5,8 12 6 21 11 ZZW 1025,8 5 0 0,0
17.02.2018 04:00:00 9,4 6,5 13 7 24 13 ZZW 1025,6 6 0 0,0
17.02.2018 03:00:00 9,7 7,3 20 11 26 14 W 1025,5 3,3 0 0,0
17.02.2018 02:00:00 9,8 7,6 16 9 26 14 W 1025,2 4,8 0 0,0
17.02.2018 01:00:00 - - - - - - - - - - -
17.02.2018 00:00:00 9,3 7,4 20 11 39 21 WZW 1024,4 3,9 0 0,6
16.02.2018 23:00:00 9,4 7,7 20 11 58 31 W 1024,0 9 0 0,4
16.02.2018 22:00:00 - - - - - - - - - - -
16.02.2018 21:00:00 - - - - - - - - - - -
16.02.2018 20:00:00 - - - - - - - - - - -
16.02.2018 19:00:00 - - - - - - - - - - -
16.02.2018 18:00:00 - - - - - - - - - - -
16.02.2018 17:00:00 12,4 11,0 8 5 17 9 ONO 1019,4 1,1 0 0,0
16.02.2018 16:00:00 12,7 11,2 10 6 16 9 ONO 1019,4 1,2 0 0,0
16.02.2018 15:00:00 13,3 12,0 2 1 74 40 NO 1020,2 0,7 0 0,0
16.02.2018 14:00:00 13,3 12,0 3 1 19 11 W 1020,9 0,3 0 0,0
16.02.2018 13:00:00 12,9 11,8 2 1 8 5 WZW 1021,6 0,5 0 -
16.02.2018 12:00:00 12,8 11,7 3 2 9 5 W 1021,9 0,4 0 0,0
16.02.2018 11:00:00 12,2 11,1 2 1 10 5 W 1021,8 0,2 0 0,0
16.02.2018 10:00:00 12,1 11,0 7 4 19 10 ONO 1021,5 0,3 0 0,0
16.02.2018 09:00:00 12,0 10,9 9 5 21 11 NO 1021,4 0,9 0 0,0
16.02.2018 08:00:00 11,9 10,8 11 6 26 14 NO 1021,5 0,1 0 0,2
16.02.2018 07:00:00 12,0 10,8 11 6 25 14 NO 1021,6 0,1 0 -
16.02.2018 06:00:00 12,1 10,9 10 6 21 11 NO 1021,7 0,2 0 0,0
16.02.2018 05:00:00 12,3 11,0 6 3 15 8 ONO 1021,8 0,1 0 0,2
16.02.2018 04:00:00 - - - - - - - - - - -
16.02.2018 03:00:00 - - - - - - - - - - -
16.02.2018 02:00:00 - - - - - - - - - - -
16.02.2018 01:00:00 - - - - - - - - - - -
16.02.2018 00:00:00 - - - - - - - - - - -
15.02.2018 23:00:00 - - - - - - - - - - -
15.02.2018 22:00:00 13,5 11,3 10 5 16 9 O 1021,2 0,6 0 0,0
15.02.2018 21:00:00 14,0 11,7 2 1 8 4 ONO 1021,2 1,3 0 0,0
15.02.2018 20:00:00 14,0 11,6 3 2 7 4 O 1021,2 1,9 0 0,2
15.02.2018 19:00:00 14,3 11,2 3 1 15 8 O 1020,7 0,5 0 -
15.02.2018 18:00:00 14,5 10,2 10 6 20 11 O 1020,2 3,3 0 0,0
15.02.2018 17:00:00 15,3 10,3 7 4 45 24 NNO 1019,1 1,3 0 0,0
15.02.2018 16:00:00 18,1 10,4 19 11 53 29 W 1018,2 2,9 0 0,0
15.02.2018 15:00:00 18,6 10,2 36 19 56 30 WZW 1018,0 20 0 0,0
15.02.2018 14:00:00 - - - - - - - - - - -

tt = temperatuur
td = dauwpunt
ff = windsnelheid
fx = windstoten
dd = windrichting
ppp = luchtdruk
vv = zicht
sd = Zonneschijnduur
rr = neerslag

Weerstations in de omgeving